Marion, IN

2:15 AM EDT on July 27, 2017 (GMT -0400)
Marion Municipal

Weather History for KMZZ - August, 2013

Change the Weather History Date:

Tuesday, August 20, 2013

  Actual Average (KMIE) Record (KMIE)
Temperature  
Mean Temperature 70 °F -  
Max Temperature 83 °F 82 °F 97 °F (1983)
Min Temperature 58 °F 61 °F 48 °F (1992)
Cooling Degree Days 6    
Growing Degree Days 20 (Base 50)    
Moisture  
Dew Point 61 °F    
Average Humidity 73    
Maximum Humidity 97    
Minimum Humidity 44    
Precipitation  
Precipitation 0.00 in - - ()
Sea Level Pressure  
Sea Level Pressure 30.14 in    
Wind  
Wind Speed 1 mph (SSE)    
Max Wind Speed 8 mph    
Max Gust Speed -    
Visibility 7 miles    
Events      
Averages and records for this station are not official NWS values.
T = Trace of Precipitation, MM = Missing Value Source: NWS Daily Summary

Daily Weather History Graph

Daily Weather History Graph

Search for Another Location

Airport or City:

Trip Planner

Search our weather history database for the weather conditions in past years. The results will help you decide how hot, cold, wet, or windy it might be!

Date:

Astronomy

Aug. 20, 2013 Rise Set
Actual Time 6:58 AM EDT 8:32 PM EDT
Civil Twilight 6:29 AM EDT 9:01 PM EDT
Nautical Twilight 5:54 AM EDT 9:36 PM EDT
Astronomical Twilight 5:17 AM EDT 10:12 PM EDT
Moon 8:03 PM EDT (8/20) 6:27 AM EDT (8/20)
Length of Visible Light 14h 31m
Length of Day
13h 34m
Full, 100% of the Moon is Illuminated
Aug 20
Full
Aug 20
Full
Aug 28
Last Quarter
Sep 5
New
Sep 12
First Quarter

Hourly Weather History & Observations

Time (EDT) Temp. Heat Index Dew Point Humidity Pressure Visibility Wind Dir Wind Speed Gust Speed Precip Events Conditions
12:15 AM 61.9 °F - 60.4 °F 95% 30.12 in 5.0 mi Calm Calm - N/A   Clear
12:35 AM 61.3 °F - 60.1 °F 96% 30.13 in 3.0 mi Calm Calm - N/A   Clear
12:55 AM 60.6 °F - 59.4 °F 96% 30.13 in 4.0 mi Calm Calm - N/A   Clear
1:15 AM 60.1 °F - 59.0 °F 96% 30.13 in 5.0 mi Calm Calm - N/A   Clear
1:35 AM 59.9 °F - 58.8 °F 96% 30.14 in 4.0 mi Calm Calm - N/A   Clear
1:55 AM 59.9 °F - 58.6 °F 96% 30.13 in 0.8 mi Calm Calm - N/A   Mist
2:15 AM 60.4 °F - 59.4 °F 96% 30.13 in 5.0 mi Calm Calm - N/A   Scattered Clouds
2:35 AM 60.8 °F - 59.9 °F 97% 30.12 in 5.0 mi Calm Calm - N/A   Scattered Clouds
2:55 AM 60.1 °F - 59.0 °F 96% 30.12 in 5.0 mi Calm Calm - N/A   Clear
3:15 AM 59.7 °F - 58.6 °F 96% 30.12 in 5.0 mi Calm Calm - N/A   Clear
3:35 AM 59.5 °F - 58.6 °F 97% 30.12 in 4.0 mi Calm Calm - N/A   Clear
3:55 AM 59.0 °F - 57.9 °F 96% 30.13 in 4.0 mi Calm Calm - N/A   Clear
4:15 AM 58.5 °F - 57.4 °F 96% 30.13 in 3.0 mi Calm Calm - N/A   Clear
4:35 AM 59.0 °F - 57.9 °F 96% 30.13 in 4.0 mi Calm Calm - N/A   Clear
4:55 AM 59.4 °F - 58.3 °F 96% 30.13 in 3.0 mi Calm Calm - N/A   Mostly Cloudy
5:15 AM 59.9 °F - 58.8 °F 96% 30.12 in 4.0 mi Calm Calm - N/A   Scattered Clouds
5:35 AM 59.4 °F - 58.5 °F 97% 30.12 in 4.0 mi Calm Calm - N/A   Clear
5:55 AM 58.3 °F - 57.2 °F 96% 30.13 in 2.5 mi Calm Calm - N/A   Clear
6:15 AM 58.1 °F - 57.0 °F 96% 30.13 in 4.0 mi Calm Calm - N/A   Clear
6:35 AM 58.8 °F - 57.7 °F 96% 30.14 in 4.0 mi Calm Calm - N/A   Clear
6:55 AM 58.8 °F - 57.7 °F 96% 30.14 in 3.0 mi Calm Calm - N/A   Clear
7:15 AM 59.2 °F - 58.3 °F 97% 30.15 in 2.5 mi ESE 3.5 mph - N/A   Clear
7:35 AM 58.5 °F - 57.4 °F 96% 30.15 in 1.8 mi Calm Calm - N/A   Mist
7:55 AM 58.8 °F - 57.9 °F 97% 30.16 in 3.0 mi Calm Calm - N/A   Clear
8:15 AM 61.9 °F - 60.8 °F 96% 30.16 in 4.0 mi Calm Calm - N/A   Clear
8:35 AM 63.1 °F - 61.9 °F 96% 30.17 in 5.0 mi Calm Calm - N/A   Clear
8:55 AM 65.1 °F - 62.6 °F 92% 30.17 in 7.0 mi South 3.5 mph - N/A   Clear
9:15 AM 66.7 °F - 62.8 °F 87% 30.18 in 10.0 mi Calm Calm - N/A   Clear
9:35 AM 68.9 °F - 63.3 °F 82% 30.18 in 7.0 mi Calm Calm - N/A   Clear
9:55 AM 70.9 °F - 63.5 °F 77% 30.18 in 7.0 mi Calm Calm - N/A   Clear
10:15 AM 72.3 °F - 63.7 °F 74% 30.19 in 7.0 mi Calm Calm - N/A   Clear
10:35 AM 73.8 °F - 63.7 °F 71% 30.19 in 10.0 mi Calm Calm - N/A   Clear
10:55 AM 75.7 °F - 64.0 °F 67% 30.19 in 7.0 mi Calm Calm - N/A   Clear
11:15 AM 77.0 °F - 64.2 °F 65% 30.19 in 10.0 mi Calm Calm - N/A   Clear
11:35 AM 78.4 °F - 64.4 °F 62% 30.19 in 10.0 mi Calm Calm - N/A   Clear
11:55 AM 78.6 °F - 64.0 °F 61% 30.19 in 10.0 mi South 4.6 mph - N/A   Clear
12:15 PM 79.3 °F - 64.2 °F 60% 30.19 in 7.0 mi South 3.5 mph - N/A   Clear
12:35 PM 80.2 °F 81.4 °F 62.4 °F 54% 30.18 in 7.0 mi SSW 3.5 mph - N/A   Clear
12:55 PM 80.6 °F 81.8 °F 62.4 °F 54% 30.18 in 10.0 mi SSE 5.8 mph - N/A   Scattered Clouds
1:15 PM 80.8 °F 81.8 °F 61.5 °F 52% 30.18 in 10.0 mi South 5.8 mph - N/A   Scattered Clouds
1:35 PM 81.7 °F 82.4 °F 61.2 °F 50% 30.17 in 10.0 mi South 5.8 mph - N/A   Scattered Clouds
1:55 PM 81.9 °F 82.2 °F 60.1 °F 47% 30.16 in 7.0 mi Calm Calm - N/A   Clear
2:15 PM 82.4 °F 82.7 °F 60.4 °F 47% 30.16 in 10.0 mi South 3.5 mph - N/A   Clear
2:35 PM 82.8 °F 83.1 °F 60.6 °F 47% 30.16 in 10.0 mi SSW 4.6 mph - N/A   Scattered Clouds
2:55 PM 83.1 °F 83.7 °F 61.3 °F 48% 30.15 in 7.0 mi South 8.1 mph - N/A   Mostly Cloudy
3:15 PM 82.9 °F 83.3 °F 60.8 °F 47% 30.14 in 7.0 mi SSE 4.6 mph - N/A   Scattered Clouds
3:35 PM 83.3 °F 83.4 °F 59.7 °F 45% 30.14 in 10.0 mi SSE 4.6 mph - N/A   Clear
3:55 PM 83.1 °F 83.2 °F 59.5 °F 45% 30.13 in 7.0 mi SSW 3.5 mph - N/A   Scattered Clouds
4:15 PM 83.1 °F 83.2 °F 59.9 °F 45% 30.13 in 7.0 mi SSW 4.6 mph - N/A   Clear
4:35 PM 83.1 °F 83.3 °F 60.4 °F 46% 30.12 in 10.0 mi Calm Calm - N/A   Clear
4:55 PM 83.3 °F 83.2 °F 59.5 °F 44% 30.12 in 10.0 mi Calm Calm - N/A   Scattered Clouds
5:15 PM 83.5 °F 83.6 °F 60.1 °F 45% 30.12 in 10.0 mi SE 3.5 mph - N/A   Scattered Clouds
5:35 PM 83.5 °F 83.7 °F 60.4 °F 46% 30.12 in 7.0 mi SSE 5.8 mph - N/A   Scattered Clouds
5:55 PM 82.8 °F 83.3 °F 61.3 °F 48% 30.12 in 5.0 mi Calm Calm - N/A   Haze
6:15 PM 82.4 °F 82.9 °F 61.0 °F 48% 30.11 in 7.0 mi SE 4.6 mph - N/A   Clear
6:35 PM 82.6 °F 83.2 °F 61.5 °F 49% 30.11 in 7.0 mi SE 3.5 mph - N/A   Clear
6:55 PM 82.4 °F 82.9 °F 60.8 °F 48% 30.11 in 5.0 mi Calm Calm - N/A   Haze
7:15 PM 81.5 °F 82.4 °F 61.7 °F 51% 30.11 in 7.0 mi Calm Calm - N/A   Clear
7:35 PM 80.2 °F 81.8 °F 63.7 °F 57% 30.11 in 7.0 mi SE 3.5 mph - N/A   Clear
7:55 PM 79.3 °F - 64.2 °F 60% 30.11 in 7.0 mi SE 4.6 mph - N/A   Clear
8:15 PM 77.7 °F - 63.0 °F 60% 30.11 in 10.0 mi Calm Calm - N/A   Clear
8:35 PM 75.9 °F - 63.3 °F 65% 30.11 in 10.0 mi SE 3.5 mph - N/A   Clear
8:55 PM 74.3 °F - 63.9 °F 70% 30.11 in 7.0 mi Calm Calm - N/A   Clear
9:15 PM 72.1 °F - 64.0 °F 76% 30.11 in 7.0 mi SE 3.5 mph - N/A   Clear
9:35 PM 71.1 °F - 63.5 °F 77% 30.12 in 7.0 mi SSE 4.6 mph - N/A   Clear
9:55 PM 70.9 °F - 62.8 °F 75% 30.13 in 10.0 mi SSE 4.6 mph - N/A   Clear
10:15 PM 71.1 °F - 62.6 °F 75% 30.13 in 10.0 mi SSE 4.6 mph - N/A   Clear
10:35 PM 70.9 °F - 62.2 °F 74% 30.14 in 10.0 mi SSE 4.6 mph - N/A   Clear
10:55 PM 70.7 °F - 62.1 °F 74% 30.14 in 10.0 mi SE 4.6 mph - N/A   Clear
11:15 PM 70.3 °F - 61.9 °F 74% 30.14 in 7.0 mi SSE 4.6 mph - N/A   Clear
11:35 PM 70.5 °F - 61.7 °F 74% 30.14 in 7.0 mi SSE 5.8 mph - N/A   Clear
11:55 PM 69.6 °F - 61.7 °F 76% 30.14 in 10.0 mi SE 4.6 mph - N/A   Clear